TimePDT,TemperatureF,Dew PointF,Humidity,Sea Level PressureIn,VisibilityMPH,Wind Direction,Wind SpeedMPH,Gust SpeedMPH,PrecipitationIn,Events,Conditions,WindDirDegrees,DateUTC
12:15 AM,59.0,46.4,63,29.93,10.0,NW,9.2,-,N/A,,Clear,320,2013-10-13 07:15:00
12:35 AM,59.0,46.4,63,29.94,10.0,NW,9.2,-,N/A,,Clear,320,2013-10-13 07:35:00
12:55 AM,57.2,46.4,67,29.94,10.0,NW,6.9,-,N/A,,Clear,310,2013-10-13 07:55:00
1:15 AM,57.2,46.4,67,29.94,10.0,NW,5.8,-,N/A,,Clear,320,2013-10-13 08:15:00
1:35 AM,57.2,46.4,67,29.94,10.0,Calm,Calm,-,N/A,,Clear,0,2013-10-13 08:35:00
1:55 AM,57.2,46.4,67,29.93,10.0,Calm,Calm,-,N/A,,Clear,0,2013-10-13 08:55:00
2:15 AM,55.4,46.4,72,29.94,10.0,North,4.6,-,N/A,,Clear,10,2013-10-13 09:15:00
2:35 AM,55.4,46.4,72,29.94,10.0,North,3.5,-,N/A,,Clear,10,2013-10-13 09:35:00
2:55 AM,55.4,46.4,72,29.94,10.0,Calm,Calm,-,N/A,,Clear,0,2013-10-13 09:55:00
3:15 AM,53.6,46.4,77,29.94,10.0,Calm,Calm,-,N/A,,Clear,0,2013-10-13 10:15:00
3:35 AM,51.8,46.4,82,29.94,10.0,East,4.6,-,N/A,,Clear,90,2013-10-13 10:35:00
3:55 AM,50.0,48.2,94,29.94,10.0,Calm,Calm,-,N/A,,Clear,0,2013-10-13 10:55:00
4:15 AM,44.6,44.6,100,29.95,10.0,Calm,Calm,-,N/A,,Clear,0,2013-10-13 11:15:00
4:35 AM,46.4,46.4,100,29.95,10.0,Calm,Calm,-,N/A,,Clear,0,2013-10-13 11:35:00
4:55 AM,46.4,46.4,100,29.96,10.0,Calm,Calm,-,N/A,,Clear,0,2013-10-13 11:55:00
5:15 AM,44.6,44.6,100,29.96,10.0,Calm,Calm,-,N/A,,Clear,0,2013-10-13 12:15:00
5:35 AM,44.6,44.6,100,29.97,10.0,Calm,Calm,-,N/A,,Clear,0,2013-10-13 12:35:00
5:55 AM,42.8,42.8,100,29.97,10.0,Calm,Calm,-,N/A,,Clear,0,2013-10-13 12:55:00
6:15 AM,44.6,44.6,100,29.98,10.0,Calm,Calm,-,N/A,,Clear,0,2013-10-13 13:15:00
6:35 AM,44.6,44.6,100,29.98,10.0,Calm,Calm,-,N/A,,Clear,0,2013-10-13 13:35:00
6:55 AM,44.6,44.6,100,29.99,10.0,Calm,Calm,-,N/A,,Clear,0,2013-10-13 13:55:00
7:15 AM,44.6,44.6,100,29.99,10.0,Calm,Calm,-,N/A,,Clear,0,2013-10-13 14:15:00
7:35 AM,44.6,44.6,100,30.00,10.0,Calm,Calm,-,N/A,,Clear,0,2013-10-13 14:35:00
7:55 AM,42.8,42.8,100,30.00,10.0,Calm,Calm,-,N/A,,Clear,0,2013-10-13 14:55:00
8:15 AM,46.4,46.4,100,30.01,10.0,Calm,Calm,-,N/A,,Clear,0,2013-10-13 15:15:00
8:55 AM,50.0,50.0,100,30.02,10.0,Calm,Calm,-,N/A,,Clear,0,2013-10-13 15:55:00
9:15 AM,53.6,48.2,82,30.03,10.0,Calm,Calm,-,N/A,,Clear,0,2013-10-13 16:15:00
9:35 AM,55.4,50.0,82,30.03,10.0,Calm,Calm,-,N/A,,Clear,0,2013-10-13 16:35:00
9:55 AM,57.2,50.0,77,30.03,10.0,Calm,Calm,-,N/A,,Clear,0,2013-10-13 16:55:00
10:15 AM,59.0,48.2,67,30.03,10.0,Calm,Calm,-,N/A,,Clear,0,2013-10-13 17:15:00
10:35 AM,62.6,46.4,55,30.03,10.0,Calm,Calm,-,N/A,,Clear,0,2013-10-13 17:35:00
10:55 AM,64.4,46.4,52,30.03,10.0,SSW,3.5,-,N/A,,Clear,200,2013-10-13 17:55:00
11:15 AM,64.4,44.6,49,30.03,10.0,West,3.5,-,N/A,,Clear,280,2013-10-13 18:15:00
11:35 AM,68.0,41.0,37,30.03,10.0,Calm,Calm,-,N/A,,Clear,0,2013-10-13 18:35:00
11:55 AM,68.0,35.6,30,30.03,10.0,NE,3.5,-,N/A,,Clear,40,2013-10-13 18:55:00
12:15 PM,69.8,35.6,28,30.02,10.0,ENE,3.5,-,N/A,,Clear,60,2013-10-13 19:15:00
12:35 PM,71.6,37.4,29,30.02,10.0,NNW,8.1,-,N/A,,Clear,330,2013-10-13 19:35:00
12:55 PM,71.6,35.6,27,30.01,10.0,ENE,3.5,-,N/A,,Clear,60,2013-10-13 19:55:00
1:15 PM,73.4,33.8,23,30.01,10.0,North,5.8,-,N/A,,Clear,360,2013-10-13 20:15:00
1:35 PM,73.4,33.8,23,30.00,10.0,North,5.8,-,N/A,,Clear,360,2013-10-13 20:35:00
1:55 PM,73.4,33.8,23,29.99,10.0,Calm,Calm,-,N/A,,Clear,0,2013-10-13 20:55:00
2:15 PM,75.2,33.8,22,29.99,10.0,West,4.6,-,N/A,,Clear,280,2013-10-13 21:15:00
2:35 PM,75.2,32.0,21,29.98,10.0,NNE,5.8,-,N/A,,Clear,20,2013-10-13 21:35:00
2:55 PM,75.2,33.8,22,29.98,10.0,NNW,6.9,-,N/A,,Clear,330,2013-10-13 21:55:00
3:15 PM,75.2,33.8,22,29.98,10.0,North,3.5,-,N/A,,Clear,350,2013-10-13 22:15:00
3:35 PM,75.2,37.4,25,29.98,10.0,West,10.4,-,N/A,,Clear,270,2013-10-13 22:35:00
3:55 PM,73.4,39.2,29,29.98,10.0,West,10.4,-,N/A,,Clear,260,2013-10-13 22:55:00
4:15 PM,73.4,37.4,27,29.99,10.0,West,6.9,-,N/A,,Clear,260,2013-10-13 23:15:00
4:35 PM,73.4,37.4,27,29.99,10.0,West,13.8,-,N/A,,Clear,260,2013-10-13 23:35:00
4:55 PM,73.4,37.4,27,30.00,10.0,West,10.4,-,N/A,,Clear,260,2013-10-13 23:55:00
5:15 PM,71.6,39.2,31,30.00,10.0,WSW,10.4,-,N/A,,Clear,240,2013-10-14 00:15:00
5:35 PM,71.6,39.2,31,30.01,10.0,WSW,5.8,-,N/A,,Clear,250,2013-10-14 00:35:00
5:55 PM,68.0,39.2,35,30.01,10.0,North,6.9,-,N/A,,Clear,360,2013-10-14 00:55:00
6:35 PM,62.6,39.2,42,30.02,10.0,NNW,9.2,-,N/A,,Clear,340,2013-10-14 01:35:00
6:55 PM,59.0,39.2,48,30.02,10.0,North,8.1,-,N/A,,Clear,360,2013-10-14 01:55:00
7:15 PM,57.2,39.2,51,30.03,10.0,NNW,5.8,-,N/A,,Clear,340,2013-10-14 02:15:00
7:35 PM,55.4,39.2,54,30.04,10.0,West,3.5,-,N/A,,Clear,270,2013-10-14 02:35:00
7:55 PM,53.6,37.4,54,30.04,10.0,Calm,Calm,-,N/A,,Clear,0,2013-10-14 02:55:00
8:15 PM,57.2,37.4,48,30.04,10.0,North,4.6,-,N/A,,Clear,360,2013-10-14 03:15:00
8:35 PM,53.6,39.2,58,30.05,10.0,Calm,Calm,-,N/A,,Clear,0,2013-10-14 03:35:00
8:55 PM,50.0,41.0,71,30.05,10.0,NNW,5.8,-,N/A,,Clear,340,2013-10-14 03:55:00
9:15 PM,48.2,41.0,76,30.06,10.0,NNE,5.8,-,N/A,,Clear,30,2013-10-14 04:15:00
9:35 PM,48.2,44.6,87,30.06,10.0,NNE,4.6,-,N/A,,Clear,20,2013-10-14 04:35:00
9:55 PM,50.0,46.4,87,30.07,10.0,Calm,Calm,-,N/A,,Clear,0,2013-10-14 04:55:00
10:15 PM,50.0,44.6,82,30.07,10.0,SW,3.5,-,N/A,,Clear,230,2013-10-14 05:15:00
10:35 PM,50.0,44.6,82,30.07,10.0,SE,3.5,-,N/A,,Clear,130,2013-10-14 05:35:00
10:55 PM,42.8,39.2,87,30.07,10.0,North,3.5,-,N/A,,Clear,10,2013-10-14 05:55:00
11:15 PM,46.4,41.0,81,30.08,10.0,North,3.5,-,N/A,,Clear,360,2013-10-14 06:15:00
11:35 PM,44.6,41.0,87,30.08,10.0,NW,3.5,-,N/A,,Clear,320,2013-10-14 06:35:00
11:55 PM,48.2,42.8,82,30.08,10.0,Calm,Calm,-,N/A,,Clear,0,2013-10-14 06:55:00